Content
SEND FEEDBACK

Daily
Averages
Monthly
Summary
United States of America

SOUTHPORT, NORTH CAROLINA


Home > North America > United States > North Carolina
Elevation: 38 feet     Latitude: 34 00N     Longitude: 078 01W

WEATHER
 
SELECT A DAY
Number of Records: 136,373;   Date Range: 8/21/01 - 7/26/14
 
SHARE

PRINT THIS DATA

[ ← Previous Day ]
WEATHER ALMANAC - JANUARY 25, 2013
[ Next Day → ]
[ °C ]   °F
Weather ElementAverageHighLow
Temperature31.3 °F41.7 °F (3:15 pm)23 °F (6:15 am)
Dewpoint20.4 °F35.8 °F (3:15 pm)3 °F (4:55 am)
Humidity66.1 %92 % (6:55 pm)40 % (3:15 am)
Barometer30.32 in30.51 in (1:55 am)30.13 in (9:35 pm)
Wind Speed6.9 mph11.5 mph (8:35 am)
Wind Gust18.4 mph (5:35 pm)
Weather ElementAverage
Visibility10 mi
Wind DirectionSE (133.7 °)

Weather ElementTotal
Precipitation---
Heating Degree Days32.7 (Base 65)
Averaged from 68 records on January 25, 2013
WEATHER CONDITIONS BREAKOUT
WIND DIRECTION BREAKOUT
WEATHER BY HOUR - JANUARY 25, 2013
[ °C ]   °F
Local TimeTemperatureDewpointHumidityBarometerVisibilityWind DirectionWind SpeedGust SpeedPrecipitationEventsConditions
12:35 AM25.5 °F5.9 °F43 %30.50 in10.0 miNorth (10°)6.9 mphClear
12:55 AM25.9 °F5.9 °F43 %30.50 in10.0 miNNE (20°)5.8 mphClear
1:15 AM25.7 °F5.9 °F43 %30.49 in10.0 miNorth (10°)8.1 mphClear
1:35 AM25.5 °F5.7 °F43 %30.50 in10.0 miNorth (360°)6.9 mphClear
1:55 AM25.3 °F5.5 °F43 %30.51 in10.0 miNorth (10°)6.9 mphClear
2:15 AM25.3 °F5.2 °F42 %30.51 in10.0 miNorth (10°)9.2 mphClear
2:35 AM24.8 °F4.6 °F42 %30.50 in10.0 miNorth (10°)8.1 mphClear
2:55 AM24.8 °F3.9 °F41 %30.50 in10.0 miNorth (360°)9.2 mphClear
3:15 AM24.8 °F3.2 °F40 %30.49 in10.0 miNorth (10°)9.2 mphClear
3:35 AM24.4 °F3.6 °F41 %30.49 in10.0 miNorth (10°)8.1 mphClear
3:55 AM24.4 °F4.1 °F42 %30.50 in10.0 miNorth (10°)8.1 mphClear
4:15 AM24.3 °F3.7 °F41 %30.49 in10.0 miNorth (10°)9.2 mphClear
4:35 AM24.1 °F3.2 °F41 %30.49 in10.0 miNorth (10°)9.2 mphClear
4:55 AM23.9 °F3.0 °F41 %30.49 in10.0 miNorth (10°)8.1 mphClear
5:15 AM23.5 °F3.0 °F41 %30.48 in10.0 miNorth (10°)8.1 mphClear
5:35 AM23.4 °F3.7 °F43 %30.48 in10.0 miNorth (10°)6.9 mphClear
5:55 AM23.4 °F3.9 °F43 %30.47 in10.0 miNorth (10°)8.1 mphClear
6:15 AM23.0 °F4.1 °F44 %30.47 in10.0 miNorth (10°)9.2 mphClear
6:35 AM23.0 °F4.8 °F46 %30.47 in10.0 miNorth (10°)9.2 mphClear
7:15 AM23.0 °F5.2 °F47 %30.47 in10.0 miNorth (10°)6.9 mphClear
7:35 AM23.7 °F5.9 °F47 %30.47 in10.0 miNorth (10°)9.2 mphClear
7:55 AM24.3 °F6.6 °F47 %30.46 in10.0 miNNE (20°)8.1 mphClear
8:35 AM27.5 °F10.0 °F48 %30.45 in10.0 miNorth (10°)11.5 mph17.3 mphClear
8:55 AM27.9 °F11.8 °F51 %30.46 in10.0 miNorth (10°)10.4 mphClear
9:15 AM29.8 °F14.0 °F52 %30.44 in10.0 miNNE (30°)8.1 mphClear
9:35 AM31.6 °F17.4 °F56 %30.43 in10.0 miENE (60°)6.9 mphClear
9:55 AM33.1 °F20.3 °F59 %30.43 in10.0 miNE (40°)8.1 mphClear
10:15 AM34.7 °F22.6 °F61 %30.43 in10.0 miNE (50°)8.1 mphClear
10:35 AM36.3 °F26.1 °F66 %30.42 in10.0 miNE (50°)8.1 mphClear
10:55 AM38.3 °F28.2 °F67 %30.40 in10.0 miENE (70°)6.9 mphScattered Clouds
11:15 AM38.5 °F29.3 °F70 %30.39 in10.0 miNE (50°)9.2 mphScattered Clouds
11:35 AM37.8 °F30.0 °F74 %30.37 in10.0 miNE (40°)6.9 mphScattered Clouds
11:55 AM37.9 °F30.2 °F74 %30.37 in10.0 miNNE (30°)8.1 mphMostly Cloudy
12:15 PM37.4 °F30.2 °F75 %30.34 in10.0 miNNE (30°)6.9 mphMostly Cloudy
12:35 PM36.9 °F30.2 °F77 %30.32 in10.0 miNNE (30°)6.9 mphMostly Cloudy
12:55 PM37.0 °F30.4 °F77 %30.30 in10.0 miNE (50°)5.8 mphOvercast
1:15 PM37.0 °F30.9 °F79 %30.28 in10.0 miENE (60°)4.6 mphOvercast
1:35 PM38.1 °F31.3 °F76 %30.25 in10.0 miNE (40°)4.6 mphMostly Cloudy
2:15 PM38.3 °F31.8 °F77 %30.24 in10.0 miNorth (10°)3.5 mphMostly Cloudy
2:35 PM39.2 °F32.0 °F75 %30.22 in10.0 miNorth (10°)3.5 mphScattered Clouds
2:55 PM39.4 °F32.0 °F75 %30.20 in10.0 miCalmMostly Cloudy
3:15 PM41.7 °F35.8 °F79 %30.19 in10.0 miCalmMostly Cloudy
3:35 PM40.1 °F32.5 °F74 %30.18 in10.0 miCalmOvercast
3:55 PM40.3 °F32.9 °F75 %30.17 in10.0 miNNW (340°)4.6 mphOvercast
4:15 PM39.2 °F32.0 °F75 %30.16 in10.0 miCalmOvercast
4:35 PM38.5 °F32.0 °F78 %30.16 in10.0 miNW (320°)5.8 mphOvercast
4:55 PM38.1 °F32.0 °F79 %30.14 in10.0 miENE (60°)3.5 mphOvercast
5:15 PM37.4 °F31.1 °F78 %30.17 in10.0 miNNW (340°)9.2 mphMostly Cloudy
5:35 PM36.0 °F30.6 °F81 %30.18 in10.0 miWNW (300°)9.2 mph18.4 mphLight Drizzle
5:55 PM34.9 °F30.7 °F85 %30.16 in10.0 miNNW (340°)10.4 mphRainLight Rain
6:15 PM33.1 °F30.0 °F89 %30.16 in10.0 miNNW (330°)6.9 mphRainRain
6:35 PM32.0 °F29.5 °F90 %30.15 in10.0 miNNW (330°)6.9 mphRainLight Rain
6:55 PM32.0 °F29.8 °F92 %30.14 in10.0 miNNW (340°)3.5 mphLight Drizzle
7:15 PM32.0 °F29.8 °F92 %30.15 in10.0 miNNW (330°)6.9 mphScattered Clouds
7:35 PM31.8 °F29.3 °F90 %30.15 in10.0 miNNW (330°)9.2 mphMostly Cloudy
7:55 PM31.5 °F28.8 °F90 %30.16 in10.0 miNW (320°)8.1 mphMostly Cloudy
8:15 PM31.1 °F28.4 °F90 %30.15 in10.0 miNW (320°)4.6 mphScattered Clouds
8:35 PM31.1 °F28.2 °F89 %30.15 in10.0 miNW (320°)8.1 mphScattered Clouds
8:55 PM31.1 °F27.7 °F87 %30.15 in10.0 miNW (310°)6.9 mphMostly Cloudy
9:15 PM31.6 °F27.5 °F85 %30.15 in10.0 miWNW (300°)6.9 mphOvercast
9:35 PM31.6 °F27.5 °F85 %30.13 in10.0 miWNW (290°)3.5 mphOvercast
9:55 PM32.0 °F27.9 °F85 %30.15 in10.0 miNW (320°)8.1 mphOvercast
10:15 PM31.8 °F27.5 °F84 %30.16 in10.0 miNNW (330°)9.2 mphOvercast
10:35 PM31.8 °F27.3 °F83 %30.16 in10.0 miNW (320°)5.8 mphOvercast
10:55 PM31.6 °F26.8 °F82 %30.16 in10.0 miNW (320°)6.9 mphOvercast
11:15 PM31.8 °F27.5 °F84 %30.16 in10.0 miNNW (340°)6.9 mphOvercast
11:35 PM31.5 °F27.1 °F84 %30.16 in10.0 miNW (310°)6.9 mphOvercast
11:55 PM31.8 °F26.4 °F80 %30.16 in10.0 miNW (320°)6.9 mphMostly Cloudy
Hourly data recorded from KSUT, located miles away from Southport, North Carolina







STORIES FROM OUR PARTNERS